sat.trackr.live / text

‹ back to catalog

STARLINK-3058

NORAD 49138 · 2021-082J

PAYLOAD ACTIVE UNKNOWN

§ Identity

Operator
Country
US
Launch date
2021-09-14
Launch site
AFWTR
Launch vehicle
Mass (kg)
RCS (m²)

Purposes: comms

External: N2YO · Heavens-Above · Gunter

§ Orbital elements

Epoch: 2026-09-20T04:27:29.016000Z

Period
96.11 min
Inclination
69.9996°
Eccentricity
0.0002914
Mean motion
14.98328820 rev/d
Perigee alt
570.0 km
Apogee alt
574.1 km
Semi-major
6,950.2 km
B*
2.6999e-5
RAAN
164.0688°
Arg perigee
270.3699°
Mean anomaly
89.7126°
Rev number
27,511

§ Raw data

STARLINK-30581 49138U 21082J   26263.18575250  .00000229  00000+0  26999-4 0  99912 49138  69.9996 164.0688 0002914 270.3699  89.7126 14.98328820275114

JSON: /api/v1/satellites/49138 · /tle

For live sub-satellite position, see the globe view (requires WebGL).

§ Visibility from observer

Set your observer location to see the next 7 days of passes ≥ 10°. The values pass through the URL so the page stays shareable.

No JS? Fill the form by hand. The geolocation button needs JavaScript.